sat.trackr.live / text

‹ back to catalog

STARLINK-34167

NORAD 64228 · 2025-117AB

PAYLOAD ACTIVE UNKNOWN

§ Identity

Operator
Country
US
Launch date
2025-05-31
Launch site
AFWTR
Launch vehicle
Mass (kg)
RCS (m²)

Purposes: comms

External: N2YO · Heavens-Above · Gunter

§ Orbital elements

Epoch: 2026-05-25T02:41:57.399360Z

Period
93.85 min
Inclination
53.1602°
Eccentricity
0.0001238
Mean motion
15.34399827 rev/d
Perigee alt
461.9 km
Apogee alt
463.6 km
Semi-major
6,840.8 km
B*
6.8341e-4
RAAN
43.4004°
Arg perigee
84.7964°
Mean anomaly
275.3179°
Rev number
5,627

§ Raw data

STARLINK-341671 64228U 25117AB  26145.11246990  .00022784  00000+0  68341-3 0  99952 64228  53.1602  43.4004 0001238  84.7964 275.3179 15.34399827 56273

JSON: /api/v1/satellites/64228 · /tle

For live sub-satellite position, see the globe view (requires WebGL).

§ Visibility from observer

Set your observer location to see the next 7 days of passes ≥ 10°. The values pass through the URL so the page stays shareable.

No JS? Fill the form by hand. The geolocation button needs JavaScript.